Flag for Canada Weather past 2 weeks in Cranbrook, British Columbia, Canada

10 °F

Light snow. Ice fog.

Feels Like: 10 °F
Forecast: 11 / 34 °F
Wind: No wind

Location: Cranbrook

Current Time: Nov 29, 2015 at 2:28:05 PM

Latest Report: Nov 29, 2015 at 2:00 PM

Visibility: 2 mi

Pressure: 30.49 "Hg (26.99 "Hg at 933m altitude)

Humidity: 85%

Dew point: 7 °F

Location of CranbrookLocation

Historic Weather in Cranbrook — Graph


Cranbrook temperature yesterday

Maximum temperature yesterday: 14 °F (at 3:00 PM)
Minimum temperature yesterday: -4 °F (at 2:00 AM)
Average temperature yesterday: 2 °F

Past Weeks' High & Low Weather Summary

High45 °F (Nov 14, 1:00 PM)100% (Nov 24, 4:00 AM)30.81 "Hg (Nov 24, 4:00 AM)
Low-6 °F (Nov 27, 8:00 AM)23% (Nov 18, 12:00 PM)29.08 "Hg (Nov 17, 7:00 PM)
Average22 °F72%30.21 "Hg
* Reported Nov 14 1:00 PM — Nov 29 1:00 PM, Cranbrook, Weather by CustomWeather, © 2015

Note: Actual official high and low records may vary slightly from our data, if they occured in-between our weather recording intervals... More about our weather records


Cranbrook weather history for previous 24 hours

Time TempWeatherWind HumidityBarometerVisibility
1:00 PM
Sun, Nov 29
9 °FLight snow. Ice fog.No wind85%30.51 "Hg1 mi
12:00 PM9 °FLight snow. Ice fog.2 mph78%30.54 "Hg1 mi
11:00 AM7 °FIce fog.2 mph78%30.56 "Hg1 mi
10:00 AM3 °FIce fog.2 mph85%30.58 "Hg1 mi
9:00 AM1 °FIce fog.No wind85%30.58 "Hg1 mi
8:00 AM1 °FIce fog.2 mph78%30.57 "Hg1 mi
7:00 AM1 °FIce fog.2 mph78%30.57 "Hg1 mi
6:00 AM1 °FIce fog.2 mph85%30.58 "Hg0 mi
5:00 AM3 °FIce fog.3 mph78%30.56 "Hg0 mi
4:00 AM1 °FIce fog.2 mph78%30.55 "Hg1 mi
3:00 AM0 °FIce fog.2 mph78%30.57 "Hg1 mi
2:00 AM0 °FIce fog.2 mph78%30.56 "Hg0 mi
1:00 AM0 °FIce fog.2 mph78%30.58 "Hg1 mi
12:00 AM-2 °FClear.No wind77%30.59 "Hg25 mi
11:00 PM
Sat, Nov 28
-2 °FClear.No wind84%30.60 "Hg25 mi
10:00 PM0 °FClear.3 mph78%30.60 "Hg25 mi
9:00 PM0 °FClear.2 mph84%30.60 "Hg25 mi
8:00 PM1 °FClear.2 mph85%30.60 "Hg25 mi
7:00 PM1 °FClear.No wind85%30.60 "Hg25 mi
6:00 PM1 °FClear.No wind78%30.60 "Hg25 mi
5:00 PM9 °FSunny.2 mph78%30.59 "Hg25 mi
4:00 PM12 °FSunny.2 mph73%30.58 "Hg25 mi
3:00 PM14 °FSunny.2 mph67%30.59 "Hg25 mi
2:00 PM12 °FSunny.No wind73%30.62 "Hg25 mi
Weather by CustomWeather, © 2015

See weather overviewHow to use our weather pages